NOAA 16 DEB, 42356

Orbit data source: Space-Track

NOAA 16 DEB, 42356 is space debris in SSO originally from a launch on Thu, 21 Sep 2000 UTC launched from the Air Force Western Test Range (AFWTR). Debris objects in space refer to the collection of defunct objects orbiting the Earth. Examples of debris include non-operational satellites, rocket bodies, and fragments generated from explosions, collisions, or faulty payload assembly.

Loading next visibility...
Identifier
42356, 2000-055QY
Orbit
SSO
Country
Flag of USUS
Related business
Manufacturer
Unknown
Mission
Spacecraft
Bus & Motor
Unknown
Mass
Unknown
Launch date (UTC)
2000-09-21 (25 years ago)
Launch vehicle
Unknown
Launch site
Air Force Western Test Range (AFWTR)
Object type
Payload
Rocket body
Debris
Shape & HBR
Unknown shape, 0.1 m
Radar Cross Section
Small (<0.1 m²)

Expand to show TLE details & history
Last TLE update: 4 days ago

TLE from 4 days ago
0 NOAA 16 DEB
1 42356U 00055QY  25346.24145116  .00020441  00000-0  47710-2 0  9996
2 42356  98.9053 144.5609 0021021  45.7332 314.5584 14.54604580510389
Epoch: 2025-12-12T05:47Z
TLE epoch observation values (Epoch: 2025-12-12T05:47:41.380Z)
Latitude
0.00004°
Longitude
-23.54742°
Altitude
703.163 km
Speed
7.51 km/s
True Right ascension
09h 38m 14s
True Declination
0° 00' 00"
Sunlit
Object was in daylight at epoch
Visualization orbit readout
Latitude
Unknown
Longitude
Unknown
Altitude
Unknown
Speed
Unknown
Apparent Right ascension
Unknown
Apparent Declination
Unknown
Sunlit
N/A
Visualization observer readout
Local Sidereal Time
12:54:12
Azimuth
Unknown
Elevation
Unknown
Doppler factor
Unknown
Orbital elements
Apogee altitude
722.667 km
Perigee altitude
692.876 km
Semi-major axis
7,085.908 km
Eccentricity
0.0021
Inclination
98.9053°
RAAN
144.5609°
Arg. of periapsis
45.7332°
True anomaly
314.38645°
Mean anomaly
314.5584°
Eccentric anomaly
314.47245°
Mean motion
3.63873 °/min
Orbital period
98.94 mins
BSTAR
0.004771
Loading maneuver chart data...
Computing Atmospheric mass density...
Loading historical data...
Loading historical data...
Loading historical data...
Loading historical data...
Loading historical data...
Loading historical data...
Loading historical data...

Documentation

Showing up to 5 results
|